FW9125 Weather Reports


time (UTC)temp
F
wind
direction
speed
knots
gust
knots
rain 1hr
in
rain 24hr
in
rain mn
in
humidity
%
barometer
mb
20260504215126 61 275 3.5 5.2 0.00 0.14 0.14 83 1011.5
20260504214718 61 345 1.7 3.5 0.00 0.14 0.14 83 1011.4
20260504214211 61 110 0.9 5.2 0.00 0.14 0.14 82 1011.5
20260504214150 61 281 0.9 4.3 0.00 0.14 0.14 83 1011.4
20260504213112 61 20 2.6 8.7 0.00 0.14 0.14 82 1011.4
20260504212713 61 304 5.2 10.4 0.01 0.14 0.14 82 1011.5
20260504212112 61 320 4.3 12.2 0.01 0.14 0.14 83 1011.5
20260504211701 61 280 4.3 12.2 0.02 0.14 0.14 83 1011.7
20260504211112 61 293 6.1 11.3 0.02 0.14 0.14 82 1011.5
20260504210621 61 319 3.5 6.1 0.02 0.12 0.14 84 1012.2
20260504210611 61 285 7.0 11.3 0.02 0.14 0.14 83 1011.4
20260504210602 60 52 1.7 6.1 0.02 0.12 0.14 85 1012.0
20260504210230 60 279 2.6 9.6 0.02 0.14 0.14 84 1011.7
20260504205813 61 131 1.7 5.2 0.02 0.12 0.14 84 1011.7
20260504205202 61 327 1.7 6.1 0.02 0.12 0.14 83 1011.9
20260504204827 60 28 3.5 6.1 0.02 0.12 0.14 84 1012.0
20260504203112 61 263 1.7 11.3 0.02 0.12 0.14 85 1012.3
20260504202632 61 280 5.2 16.5 0.02 0.12 0.13 84 1012.5
20260504202220 62 293 8.7 16.5 0.02 0.12 0.13 85 1012.6
20260504201630 62 257 7.0 12.2 0.01 0.12 0.13 92 1012.7
20260504201215 62 271 4.3 7.0 0.00 0.12 0.12 93 1012.3
20260504200619 62 275 5.2 7.0 0.00 0.12 0.12 93 1012.1
20260504200245 62 256 3.5 5.2 0.00 0.13 0.12 93 1011.9
20260504195612 62 256 3.5 4.3 0.00 0.13 0.12 93 1011.9
20260504195207 62 268 1.7 3.5 0.00 0.13 0.12 93 1011.8
20260504194620 62 260 0.0 3.5 0.00 0.13 0.12 93 1011.6
20260504194328 62 251 2.6 6.1 0.00 0.14 0.12 93 1011.6
20260504194257 62 270 0.9 4.3 0.00 0.14 0.12 93 1011.6
20260504193112 62 236 3.5 6.1 0.00 0.14 0.12 93 1011.6
20260504192611 62 232 1.7 3.5 0.00 0.15 0.12 93 1011.5
20260504192111 62 288 1.7 3.5 0.00 0.15 0.12 92 1011.3
20260504191611 62 286 1.7 6.1 0.00 0.15 0.12 92 1011.2
20260504191144 62 272 3.5 6.1 0.00 0.15 0.12 92 1011.3
20260504190716 62 266 2.6 4.3 0.00 0.15 0.12 92 1011.3
20260504190204 62 279 2.6 4.3 0.00 0.15 0.12 93 1011.2
20260504190152 62 268 1.7 3.5 0.00 0.15 0.12 92 1011.2
20260504185337 63 221 1.7 4.3 0.00 0.15 0.12 92 1010.7
20260504185331 62 255 2.6 5.2 0.00 0.15 0.12 93 1010.8
20260504185147 62 257 2.6 5.2 0.00 0.15 0.12 93 1011.1
20260504184815 62 231 2.6 5.2 0.00 0.15 0.12 93 1011.1
20260504184422 63 263 3.5 4.3 0.00 0.15 0.12 92 1010.7
20260504184417 63 231 1.7 3.5 0.00 0.15 0.12 92 1010.7
20260504184223 62 268 2.6 5.2 0.00 0.15 0.12 93 1011.1
20260504183850 62 242 3.5 5.2 0.00 0.15 0.12 93 1011.0
20260504182958 62 240 2.6 3.5 0.00 0.15 0.12 93 1010.8
20260504180659 63 214 2.6 3.5 0.00 0.15 0.12 92 1010.7
20260504180117 63 213 2.6 3.5 0.00 0.15 0.12 92 1010.7
20260504175609 63 230 2.6 3.5 0.00 0.15 0.12 92 1010.7
20260504175110 63 260 0.9 2.6 0.00 0.15 0.12 93 1010.7
20260504174610 63 284 0.9 2.6 0.00 0.15 0.12 93 1010.7
20260504174428 63 214 0.0 2.6 0.01 0.15 0.12 93 1010.8
20260504174140 63 196 0.9 2.6 0.00 0.15 0.12 93 1010.7
20260504173807 63 221 1.7 2.6 0.01 0.15 0.12 93 1010.7
20260504172632 63 234 0.9 2.6 0.02 0.15 0.12 93 1010.8
20260504172110 63 179 0.9 1.7 0.02 0.15 0.12 93 1010.8
20260504171631 63 200 0.0 1.7 0.02 0.15 0.12 93 1010.7
20260504171219 63 219 0.0 1.7 0.02 0.15 0.12 93 1010.8
20260504170949 63 236 0.0 0.0 0.04 0.13 0.12 93 1010.9
20260504170945 63 236 0.0 0.0 0.02 0.15 0.12 93 1010.9
20260504170855 64 236 0.0 0.0 0.02 0.15 0.12 93 1010.8
20260504160343 63 197 0.9 1.7 0.04 0.13 0.09 91 1011.3
20260504151110 64 231 3.5 7.8 0.02 0.09 0.06 89 1011.2
20260504151022 64 230 4.3 7.8 0.02 0.09 0.06 91 1011.4
20260504150110 64 225 4.3 7.8 0.03 0.09 0.06 91 1011.5
20260504141110 65 197 1.7 4.3 0.02 0.06 0.03 91 1011.8
20260504141039 65 269 1.7 4.3 0.01 0.06 0.02 90 1011.9
20260504140819 65 246 2.6 4.3 0.02 0.06 0.02 91 1011.8
20260504130714 65 232 4.3 6.1 0.00 0.05 0.02 88 1011.9
20260504120317 65 214 2.6 7.0 0.01 0.03 0.01 89 1012.2
20260504120313 65 163 4.3 7.8 0.00 0.03 0.00 89 1012.2
20260504120120 65 231 1.7 7.0 0.02 0.05 0.02 89 1012.2
20260504110715 65 239 5.2 9.6 0.00 0.03 0.00 87 1012.3
20260504100141 67 155 3.5 7.8 0.00 0.03 0.00 82 1012.4
20260504081604 68 251 3.5 6.1 0.00 0.03 0.00 75 1012.3
20260504081542 68 216 2.6 6.1 0.00 0.03 0.00 74 1012.4
20260504080638 68 227 2.6 5.2 0.00 0.03 0.00 75 1012.5
20260504080428 67 193 2.6 5.2 0.00 0.03 0.00 76 1012.5
20260504070347 65 269 1.7 3.5 0.00 0.03 0.00 79 1012.9
20260504070251 65 252 1.7 4.3 0.00 0.03 0.00 79 1012.8
20260504060159 62 316 0.0 0.0 0.00 0.03 0.00 86 1013.0
20260504050608 62 316 0.0 0.0 0.00 0.03 0.00 87 1012.9
20260504050551 62 316 0.0 1.7 0.00 0.03 0.00 87 1013.0
20260504050546 62 316 0.0 1.7 0.00 0.03 0.00 87 1013.0
20260504050431 62 316 0.0 0.0 0.00 0.03 0.00 87 1013.0
20260504045858 62 316 0.0 0.0 0.00 0.03 0.00 87 1012.9
20260504044123 62 328 0.9 1.7 0.00 0.03 0.00 87 1012.9
20260504043606 62 328 0.9 1.7 0.00 0.03 0.00 87 1012.8
20260504043057 62 34 0.0 1.7 0.00 0.03 0.00 87 1012.9
20260504042556 62 331 0.0 0.9 0.00 0.03 0.00 87 1013.0
20260504042148 62 328 0.0 0.9 0.00 0.03 0.00 87 1013.0
20260504041826 62 326 0.0 0.0 0.00 0.03 0.00 87 1013.0
20260504041717 62 326 0.0 0.0 0.00 0.03 0.00 87 1013.1
20260504040556 62 326 0.0 0.0 0.00 0.03 0.00 87 1013.0
20260504040213 62 326 0.0 0.9 0.00 0.03 0.00 86 1013.1
20260504035714 62 326 0.0 0.9 0.00 0.03 0.00 86 1013.1
20260504035124 62 326 0.0 0.9 0.00 0.03 0.00 86 1013.1
20260504034705 62 323 0.0 1.7 0.00 0.03 0.00 86 1013.2
20260504034115 62 323 0.9 1.7 0.00 0.03 0.00 86 1013.2
20260504033659 62 7 0.9 1.7 0.00 0.03 0.00 86 1013.3
20260504033056 62 15 0.0 0.9 0.00 0.03 0.00 86 1013.4
20260504032651 62 340 0.0 0.9 0.00 0.03 0.00 86 1013.5
20260504032056 62 304 0.0 0.9 0.00 0.03 0.00 87 1013.4
20260504031644 62 304 0.0 0.9 0.00 0.03 0.00 87 1013.4
20260504031056 62 304 0.0 1.7 0.00 0.03 0.00 87 1013.5
20260504030638 62 304 0.0 1.7 0.00 0.03 0.00 88 1013.4
20260504030130 62 307 0.0 0.9 0.00 0.03 0.00 88 1013.4
20260504025556 61 51 0.0 0.0 0.00 0.03 0.00 88 1013.4
20260504025444 62 311 0.0 0.0 0.00 0.03 0.00 88 1013.2
20260504025248 61 51 0.0 0.9 0.00 0.03 0.00 88 1013.3
20260504024754 61 51 0.0 0.9 0.00 0.03 0.00 88 1013.2
20260504024255 61 311 0.0 0.0 0.00 0.03 0.00 88 1013.2
20260504023104 62 311 0.0 0.9 0.00 0.03 0.00 87 1013.2
20260504022601 62 311 0.0 0.9 0.00 0.03 0.00 87 1013.3
20260504022057 62 311 0.0 0.9 0.00 0.03 0.00 87 1013.3
20260504021556 62 311 0.0 1.7 0.00 0.03 0.00 87 1013.3
20260504021141 62 302 0.9 1.7 0.00 0.03 0.00 87 1013.3
20260504020735 62 304 0.0 1.7 0.00 0.03 0.00 87 1013.3
20260504020708 62 340 0.9 1.7 0.00 0.03 0.00 87 1013.3
20260504020341 62 305 0.0 0.9 0.00 0.03 0.00 87 1013.4
20260504015129 62 304 0.0 2.6 0.00 0.03 0.00 87 1013.4
20260504014755 62 313 0.9 2.6 0.00 0.03 0.00 87 1013.4
20260504014401 62 345 1.7 3.5 0.00 0.03 0.00 87 1013.6
20260504014208 62 311 0.0 1.7 0.00 0.03 0.00 87 1013.5
20260504013837 62 358 1.7 1.7 0.00 0.03 0.00 87 1013.5
20260504012056 62 356 2.6 3.5 0.00 0.03 0.00 87 1013.5
20260504011656 61 23 1.7 3.5 0.00 0.03 0.00 87 1013.6
20260504011057 62 323 1.7 3.5 0.00 0.03 0.00 87 1013.7
20260504010813 62 8 1.7 4.3 0.00 0.03 0.00 87 1013.7
20260504010721 62 331 1.7 3.5 0.00 0.03 0.00 87 1013.7
20260504010231 61 338 2.6 4.3 0.00 0.03 0.00 87 1013.6
20260504005101 62 334 2.6 4.3 0.00 0.03 0.00 86 1013.7
20260504004555 62 346 2.6 6.1 0.00 0.03 0.00 86 1013.8
20260504004114 62 290 3.5 6.1 0.00 0.03 0.00 86 1013.9
20260504003636 62 325 0.9 1.7 0.00 0.03 0.00 87 1013.9
20260504003229 62 329 1.7 2.6 0.00 0.03 0.00 87 1014.0
20260504003205 62 351 0.9 2.6 0.00 0.03 0.00 87 1014.0
20260504002117 61 339 1.7 2.6 0.00 0.03 0.00 89 1014.0
20260504002056 61 340 1.7 2.6 0.00 0.03 0.00 88 1014.0
20260504001215 61 340 1.7 2.6 0.00 0.03 0.00 89 1014.0
20260504000728 61 346 1.7 4.3 0.00 0.03 0.00 89 1014.0
20260504000401 61 30 2.6 4.3 0.00 0.03 0.00 89 1014.0
20260503235616 61 12 3.5 4.3 0.00 0.03 0.00 89 1014.1
20260503235247 61 32 3.5 4.3 0.00 0.03 0.00 89 1014.1
20260503234751 61 27 1.7 3.5 0.00 0.03 0.00 90 1014.2
20260503233553 61 25 1.7 3.5 0.00 0.03 0.00 90 1014.3
20260503233152 61 4 1.7 3.5 0.00 0.03 0.00 90 1014.3
20260503232556 61 22 2.6 3.5 0.00 0.03 0.00 90 1014.2
20260503232113 61 4 1.7 3.5 0.00 0.03 0.00 90 1014.3
20260503231553 61 346 1.7 3.5 0.00 0.03 0.00 90 1014.4
20260503231053 61 16 1.7 2.6 0.00 0.03 0.00 90 1014.4
20260503230606 61 3 1.7 2.6 0.00 0.03 0.00 90 1014.5
20260503230216 61 6 1.7 2.6 0.00 0.03 0.00 90 1014.5
20260503225841 61 359 1.7 3.5 0.00 0.03 0.00 90 1014.5
20260503225132 61 24 1.7 3.5 0.00 0.03 0.00 90 1014.5
20260503224654 61 5 1.7 3.5 0.00 0.03 0.00 91 1014.6
20260503224649 62 7 1.7 3.5 0.00 0.03 0.00 91 1014.7
20260503224627 61 15 1.7 3.5 0.00 0.03 0.00 90 1014.5
20260503223333 62 37 1.7 3.5 0.00 0.03 0.00 91 1014.7
20260503223144 62 25 0.9 1.7 0.00 0.03 0.00 91 1014.7
20260503222811 62 41 0.9 2.6 0.00 0.03 0.00 91 1014.7
20260503221658 62 40 1.7 3.5 0.00 0.03 0.00 91 1014.7
20260503221116 62 49 2.6 6.1 0.00 0.03 0.00 91 1014.6
20260503221013 62 51 4.3 6.1 0.00 0.03 0.00 91 1014.4
20260503220559 62 61 3.5 6.1 0.00 0.03 0.00 92 1014.5
20260503215645 62 29 2.6 6.1 0.00 0.03 0.03 92 1014.6